WetterOnline ( https://www.wetteronline.de )

Wetter aktuell Kolben

Aktuelles Wetter: Garmisch-Partenkirchen (719m)

6-stündlich | Neueste Meldungen
Ortszeit Temperatur Wetter
Di, 05.03. 13:00 8.3° C bedeckt
Di, 05.03. 7:00 5.4° C bedeckt
Di, 05.03. 1:00 6.2° C bedeckt
Mo, 04.03. 19:00 7.8° C bedeckt
Mo, 04.03. 13:00 11.6° C leicht bewölkt
Mo, 04.03. 7:00 0.3° C bedeckt
Mo, 04.03. 1:00 4.8° C bedeckt
So, 03.03. 19:00 8.1° C bedeckt
Ortszeit Temperatur Wetter
Di, 05.03. 14:30 8.3° C Sprühregen
Di, 05.03. 14:20 8.3° C Sprühregen
Di, 05.03. 14:10 8.4° C bedeckt
Di, 05.03. 14:00 8.5° C bedeckt
Di, 05.03. 13:50 8.5° C bedeckt
Di, 05.03. 13:40 8.5° C bedeckt
Di, 05.03. 13:30 8.6° C bedeckt
Di, 05.03. 13:00 8.3° C bedeckt
Di, 05.03. 12:30 8.2° C bedeckt
Di, 05.03. 12:00 7.9° C bedeckt
Di, 05.03. 11:30 7.6° C bedeckt
Ortszeit Relative Feuchte Sichtweite
Di, 05.03. 13:00 71% 26 km
Di, 05.03. 7:00 89% 9 km
Di, 05.03. 1:00 84% 18 km
Mo, 04.03. 19:00 73% 35 km
Mo, 04.03. 13:00 54% 40 km
Mo, 04.03. 7:00 86% >70 km
Mo, 04.03. 1:00 72% 65 km
So, 03.03. 19:00 54% >70 km
Ortszeit Relative Feuchte Sichtweite
Di, 05.03. 14:30 67% 35 km
Di, 05.03. 14:20 67% -
Di, 05.03. 14:10 69% -
Di, 05.03. 14:00 70% 28 km
Di, 05.03. 13:50 70% -
Di, 05.03. 13:40 71% -
Di, 05.03. 13:30 73% 24 km
Di, 05.03. 13:00 71% 26 km
Di, 05.03. 12:30 69% 24 km
Di, 05.03. 12:00 73% 21 km
Di, 05.03. 11:30 77% 16 km
Ortszeit Niederschlagsmenge Niederschlagsart
Di, 05.03. 13:00 0.0 l/m2 in 6 Std. -
Di, 05.03. 7:00 0.1 l/m2 in 12 Std. Sprühregen
Di, 05.03. 1:00 0.0 l/m2 in 6 Std. -
Mo, 04.03. 19:00 0.0 l/m2 in 12 Std. -
Mo, 04.03. 13:00 0.0 l/m2 in 6 Std. -
Mo, 04.03. 7:00 0.0 l/m2 in 12 Std. -
Mo, 04.03. 1:00 0.0 l/m2 in 6 Std. -
So, 03.03. 19:00 0.0 l/m2 in 12 Std. -
Ortszeit Niederschlagsmenge Niederschlagsart
Di, 05.03. 14:30 <0.05 l/m2 in 30 Min -
Di, 05.03. 14:20 keine Meldung -
Di, 05.03. 14:10 keine Meldung -
Di, 05.03. 14:00 <0.05 l/m2 in 1 Std. Regen
Di, 05.03. 13:50 keine Meldung -
Di, 05.03. 13:40 keine Meldung -
Di, 05.03. 13:30 <0.05 l/m2 in 30 Min Schneeregen
Di, 05.03. 13:00 0.0 l/m2 in 1 Std. -
Di, 05.03. 12:30 0.0 l/m2 in 30 Min -
Di, 05.03. 12:00 0.0 l/m2 in 1 Std. -
Di, 05.03. 11:30 0.0 l/m2 in 30 Min -
Ortszeit Stärke Spitze Richtung
km/h Bft. km/h Grad Sektor
Di, 05.03. 13:00 7 2 14 40° NO
Di, 05.03. 7:00 4 1 18 180° S
Di, 05.03. 1:00 7 2 22 90° O
Mo, 04.03. 19:00 9 2 44 30° NO
Mo, 04.03. 13:00 17 3 26 40° NO
Mo, 04.03. 7:00 2 1 11 300° NW
Mo, 04.03. 1:00 7 2 11 240° SW
So, 03.03. 19:00 4 1 36 170° S
Ortszeit Stärke Spitze Richtung
km/h Bft. km/h Grad Sektor
Di, 05.03. 14:30 13 3 22 40° NO
Di, 05.03. 14:20 13 3 - 40° NO
Di, 05.03. 14:10 13 3 - 40° NO
Di, 05.03. 14:00 11 2 22 50° NO
Di, 05.03. 13:50 11 2 - 50° NO
Di, 05.03. 13:40 11 2 - 40° NO
Di, 05.03. 13:30 9 2 13 90° O
Di, 05.03. 13:00 7 2 14 40° NO
Di, 05.03. 12:30 7 2 11 50° NO
Di, 05.03. 12:00 7 2 14 100° O
Di, 05.03. 11:30 7 2 14 40° NO
Ortszeit Untergrenze Bedeckung Gattung
total tief tief mittel hoch
Di, 05.03. 13:00 1320 m 8/8 8/8 - - -
Di, 05.03. 7:00 300 m 8/8 8/8 - - -
Di, 05.03. 1:00 450 m 8/8 8/8 - - -
Mo, 04.03. 19:00 660 m 8/8 8/8 - - -
Mo, 04.03. 13:00 9000 m 3/8 0/8 - - -
Mo, 04.03. 7:00 3600 m 8/8 8/8 - - -
Mo, 04.03. 1:00 2700 m 8/8 8/8 - - -
So, 03.03. 19:00 6000 m 8/8 8/8 - - -
Ortszeit Bedeckungsgrad in Achtel und Wolkenuntergrenze
Di, 05.03. 14:30 8(1260m)
Di, 05.03. 14:20 8(1260m)
Di, 05.03. 14:10 8
Di, 05.03. 14:00 8(1140m) 8(1440m)
Di, 05.03. 13:50 8(1140m) 8(1440m)
Di, 05.03. 13:40 8
Di, 05.03. 13:30 5(1170m) 8(1800m) 8(2400m)
Di, 05.03. 13:00 6(1320m) 7(1500m) 8(1800m)
Di, 05.03. 12:30 4(1380m) 8(1800m) 8(2400m)
Di, 05.03. 12:00 7(1500m) 8(1800m) 8(2100m)
Di, 05.03. 11:30 7(1350m) 8(1500m)
Ortszeit Luftdruck NN (hPa) Tendenz (hPa in 3 Std.)
Di, 05.03. 13:00 1014 - 0,4
Di, 05.03. 7:00 1014 + 0,8
Di, 05.03. 1:00 1013 + 0,6
Mo, 04.03. 19:00 1011 + 2,0
Mo, 04.03. 13:00 1008 - 0,5
Mo, 04.03. 7:00 1010 + 2,2
Mo, 04.03. 1:00 1005 + 1,3
So, 03.03. 19:00 1001 + 1,0
Ortszeit Luftdruck NN (hPa) Tendenz (hPa in 3 Std.)
Di, 05.03. 14:30 1014 - 0,6
Di, 05.03. 14:20 1014 keine Meldung
Di, 05.03. 14:10 1014 keine Meldung
Di, 05.03. 14:00 1014 - 0,7
Di, 05.03. 13:50 1014 keine Meldung
Di, 05.03. 13:40 1014 keine Meldung
Di, 05.03. 13:30 1014 - 0,5
Di, 05.03. 13:00 1014 - 0,4
Di, 05.03. 12:30 1014 - 0,3
Di, 05.03. 12:00 1015 + 0,1
Di, 05.03. 11:30 1015 + 0,3
Ortszeit Schneehöhe (cm)
Di, 05.03. 13:00 0
Di, 05.03. 7:00 0
Di, 05.03. 1:00 0
Mo, 04.03. 19:00 0
Mo, 04.03. 13:00 0
Mo, 04.03. 7:00 0
Mo, 04.03. 1:00 0
So, 03.03. 19:00 0
Ortszeit Schneehöhe (cm)
Di, 05.03. 14:30 0
Di, 05.03. 14:20 0
Di, 05.03. 14:10 -
Di, 05.03. 14:00 0
Di, 05.03. 13:50 0
Di, 05.03. 13:40 -
Di, 05.03. 13:30 0
Di, 05.03. 13:00 0
Di, 05.03. 12:30 0
Di, 05.03. 12:00 0
Di, 05.03. 11:30 0
Link zu dieser Seite / Seite empfehlen

Das Wetter in ...